Regional Weather Roundup
Issued by NWS Goodland, KS

Home | Current Version | Previous Version | Text Only | Print | Product List | Glossary Off
Versions: 1 2 3 4 5 6 7 8 9 10 11 12 13 14 15 16 17 18 19 20 21 22 23 24 25 26 27 28 29 30 31 32 33 34 35 36 37 38 39 40 41 42 43 44 45 46 47 48 49 50

000
ASUS43 KGLD 240659
RWRGLD

GOODLAND FORECAST AREA HOURLY WEATHER ROUNDUP
NATIONAL WEATHER SERVICE GOODLAND KS
100 AM MDT SUN SEP 24 2017

...OFFICIAL OBSERVATIONS...

CITY           SKY/WX    TMP DP  RH WIND       PRES   REMARKS
GOODLAND KS    HVY RAIN  56  55  97 NW21G32   29.87R VSB 3/4
HILL CITY KS   LGT RAIN  65  64  97 E3        29.87F
IMPERIAL NEB   LGT RAIN  51  49  92 N15       29.91S
MCCOOK NEB     CLOUDY    58  58 100 E9        29.84F
AKRON CO       RAIN      47  44  90 NE9       29.95R
BURLINGTON CO  CLOUDY    49  48  97 N15       29.92F
LIMON CO         N/A    N/A N/A N/A MISG      29.92F
$$

...UNOFFICIAL OBSERVATIONS...

CITY           SKY/WX    TMP DP  RH WIND       PRES   REMARKS
LENORA KS        N/A     62  32  32 MISG        N/A
NORTON KS      LGT RAIN  61  55  82 E5        29.87R
SHARON SPRINGS   N/A     63  62  96 S16         N/A
KIT CARSON CO    N/A     50  47  88 MISG        N/A
YUMA CO        LGT RAIN  45  45 100 N8        29.93F
$$




USA.gov is the U.S. government's official web portal to all federal, state and local government web resources and services.